Content
SEND FEEDBACK

Daily
Averages
Monthly
Summary
United States of America

SOUTH LAKE TAHOE - AIRPORT, CALIFORNIA


Home > North America > United States > California
Elevation: 1905 meters     Latitude: 38 54N     Longitude: 120 00W

WEATHER
 
SELECT A DAY
Number of Records: 174,493;   Date Range: 1/1/95 - 8/12/14
 
SHARE

PRINT THIS DATA

[ ← Previous Day ]
WEATHER ALMANAC - 23 MARCH, 2013
[ Next Day → ]
[ °F ]   °C
Weather ElementAverageHighLow
Temperature2.6 °C11.7 °C (1:53 pm)-6.7 °C (5:53 am)
Dewpoint-8.9 °C-5.6 °C (9:53 pm)-13.9 °C (2:53 pm)
Humidity48.3 %78 % (5:53 am)16 % (2:53 pm)
Barometer1018.6 hPa1021.7 hPa (7:53 am)1016.6 hPa (1:53 pm)
Wind Speed4 km/h20.4 km/h (2:53 pm)
Wind Gust31.5 km/h (2:53 pm)
Weather ElementAverage
Visibility16.1 km
Wind DirectionNNE (29.6 °)

Weather ElementTotal
Precipitation---
Heating Degree Days15.8 (Base 18.3)
Averaged from 23 records on 23 March, 2013
WEATHER CONDITIONS BREAKOUT
WIND DIRECTION BREAKOUT
WEATHER BY HOUR - 23 MARCH, 2013
[ °F ]   °C
Local TimeTemperatureDewpointHumidityBarometerVisibilityWind DirectionWind SpeedGust SpeedPrecipitationEventsConditions
1:53 AM-3.3 °C-8.9 °C66 %1018.6 hPa16.1 kmCalmClear
2:53 AM-4.4 °C-9.4 °C69 %1019 hPa16.1 kmCalmClear
3:53 AM-5.6 °C-9.4 °C75 %1018.6 hPa16.1 kmCalmClear
4:53 AM-6.1 °C-10 °C74 %1018.6 hPa16.1 kmCalmClear
5:53 AM-6.7 °C-10 °C78 %1019.3 hPa16.1 kmCalmClear
6:53 AM-6.7 °C-10.6 °C74 %1020.3 hPa16.1 kmCalmClear
7:53 AM-6.1 °C-10.6 °C71 %1021.7 hPa16.1 kmSSW (200°)9.3 km/hClear
8:53 AM-1.7 °C-11.1 °C49 %1020.7 hPa16.1 kmCalmClear
9:53 AM2.8 °C-12.8 °C31 %1020 hPa16.1 kmCalmClear
10:53 AM6.1 °C-12.2 °C26 %1019.3 hPa16.1 kmNE (40°)5.6 km/hClear
11:53 AM8.9 °C-9.4 °C27 %1017.9 hPa16.1 kmNNE (30°)7.4 km/hClear
12:53 PM9.4 °C-6.7 °C32 %1017.6 hPa16.1 kmCalmClear
1:53 PM11.7 °C-9.4 °C22 %1016.6 hPa16.1 kmSSW (210°)16.7 km/h25.9 km/hClear
2:53 PM11.1 °C-13.9 °C16 %1016.9 hPa16.1 kmSSW (200°)20.4 km/h31.5 km/hClear
3:53 PM11.1 °C-10 °C22 %1017.3 hPa16.1 kmVariable11.1 km/h27.8 km/hClear
4:53 PM11.7 °C-8.3 °C24 %1016.9 hPa16.1 kmVariable7.4 km/hClear
5:53 PM10.6 °C-7.8 °C27 %1017.3 hPa16.1 kmVariable7.4 km/hClear
6:53 PM7.2 °C-6.1 °C39 %1018.3 hPa16.1 kmVariable7.4 km/hClear
7:53 PM4.4 °C-6.1 °C47 %1019.3 hPa16.1 kmCalmClear
8:53 PM2.8 °C-6.1 °C52 %1019.3 hPa16.1 kmCalmClear
9:53 PM1.7 °C-5.6 °C59 %1019.3 hPa16.1 kmCalmClear
10:53 PM0.6 °C-5.6 °C64 %1019 hPa16.1 kmCalmClear
11:53 PM-0.6 °C-6.1 °C67 %1018.3 hPa16.1 kmCalmClear
Hourly data recorded from KTVL, located 0 kilometers away from South Lake Tahoe - Airport, California







STORIES FROM OUR PARTNERS